# Land Stadt Wetter Temperatur Luftdruck Luftfeuchtigkeit Sichtweite Windgeschwindigkeit Windrichtung Ortszeit
1 us Tucson Clear 16 1011 19 10000 6 0 02.08.2018 14:21
2 no Hammerfest Snow 1 1007 75 10000 6 0 02.08.2018 14:22
3 gl Nuuk Clouds 1 1008 69 10000 2 0 02.08.2018 14:22
4 de Köln Clouds 9 1025 46 10000 11 0 02.08.2018 14:21
5 es Sevilla Clouds 21 1014 56 10000 4 0 02.08.2018 14:22
6 it Mailand Clouds 17 1020 63 10000 4 0 02.08.2018 14:21
7 es Madrid Clouds 13 1014 77 10000 4 0 02.08.2018 14:23
8 bs Nassau Clear 22 1016 100 10000 4 0 02.08.2018 14:22
9 bg Sofia Clouds 17 1020 34 10000 7 0 02.08.2018 14:21
10 ad Andorra la Vella Clouds 9 1016 58 10000 9 0 02.08.2018 14:22
11 sa Riad Clear 39 1014 6 10000 6 0 02.08.2018 14:21
12 gb Manchester Clouds 13 1028 46 10000 6 0 02.08.2018 14:21
13 pt Lissabon Clouds 18 1015 55 10000 7 0 02.08.2018 14:22
14 af Kabul Clear 18 1019 20 10000 28 10 02.08.2018 14:21
15 de Stuttgart Clouds 12 1022 58 10000 9 10 02.08.2018 14:22
16 us Honolulu Clouds 23 1019 64 10000 6 10 02.08.2018 14:22
17 ar Buenos Aires Clouds 19 1016 82 10000 19 20 02.08.2018 14:22
18 ca Montreal Clouds -3 1004 68 10000 4 20 02.08.2018 14:22
19 fr Paris Clear 14 1023 54 10000 19 20 02.08.2018 14:22
20 it Palermo Clouds 19 1014 82 10000 13 20 02.08.2018 14:22
21 id Jakarta Clouds 31 1008 55 6000 19 20 02.08.2018 14:22
22 us Fairbanks Clear -1 1027 55 10000 6 27 02.08.2018 14:23
23 br Manaus Clouds 25 1011 94 10000 6 40 02.08.2018 14:21
24 de Frankfurt Clear 9 1024 46 10000 11 40 02.08.2018 14:22
25 es Las Palmas de Gran Canaria Clouds 22 1017 56 10000 22 40 02.08.2018 14:21
26 ma Marrakesch Clear 22 1014 46 10000 11 40 02.08.2018 14:23
27 us Nome Clear 3 1024 52 10000 15 40 02.08.2018 14:23
28 ch Andermatt Clouds 8 1019 47 10000 20 50 02.08.2018 14:23
29 uy Montevideo Clear 17 1018 94 10000 20 50 02.08.2018 14:22
30 jp Tokio Clouds 14 1019 77 10000 43 60 02.08.2018 14:22
31 mx Mexiko Stadt Clouds 13 1026 71 10000 9 60 02.08.2018 14:21
32 at Innsbruck Clouds 13 1019 50 10000 11 70 02.08.2018 14:23
33 es Barcelona Clouds 15 1018 63 10000 24 70 02.08.2018 14:22
34 pg Port Moresby Clouds 26 1010 83 10000 3 86 02.08.2018 14:21
35 de Trier Clear 9 1023 46 10000 15 90 02.08.2018 14:21
36 ar Ushuaia Drizzle 6 1007 87 10000 4 90 02.08.2018 14:22
37 ck Avarua Clouds 26 1016 78 10000 22 90 02.08.2018 14:22
38 es Palma de Mallorca Clouds 17 1016 67 10000 13 90 02.08.2018 14:22
39 is Reykjavik Rain 7 1019 76 10000 17 90 02.08.2018 14:22
40 ec San Cristobal Clouds 25 1010 85 10000 9 91 02.08.2018 14:22
41 fr Nizza Clouds 16 1019 72 10000 19 100 02.08.2018 14:22
42 cd Kisangani Clouds 31 1009 53 10000 6 103 02.08.2018 14:23
43 qa Doha Clear 37 1011 14 10000 15 110 02.08.2018 14:23
44 gb London Clouds 12 1028 50 10000 24 110 02.08.2018 14:22
45 it Rom Clear 14 1017 67 10000 7 110 02.08.2018 14:23
46 de Torfhaus Clouds 10 1022 42 10000 3 115 02.08.2018 14:22
47 bg Warna Clouds 17 1020 42 10000 22 120 02.08.2018 14:21
48 vn Hanoi Clouds 30 1005 74 10000 20 120 02.08.2018 14:21
49 fr Bordeaux Clear 19 1016 45 10000 20 120 02.08.2018 14:21
50 sb Honiara Clouds 26 1011 89 10000 9 121 02.08.2018 14:22
51 cn Peking Clouds 15 999 65 10000 10 124 02.08.2018 14:23
52 mg Antananarivo Clouds 24 1021 60 10000 19 130 02.08.2018 14:21
53 ie Dublin Clouds 13 1026 62 10000 17 140 02.08.2018 14:21
54 pe Cusco Clouds 6 1021 95 10000 2 140 02.08.2018 14:23
55 et Addis Abeba Clouds 23 1026 38 10000 11 140 02.08.2018 14:23
56 au Perth Clear 21 1021 45 10000 9 140 02.08.2018 14:21
57 au Alice Springs Clear 18 1020 29 10000 15 150 02.08.2018 14:21
58 de Oberstdorf Rain 12 1019 58 7563 2 157 02.08.2018 14:21
59 cn Shanghai Rain 20 1010 88 10000 14 160 02.08.2018 14:21
60 ke Nairobi Rain 24 1021 60 10000 19 170 02.08.2018 14:22
61 ru Werchojansk Clouds -11 1021 83 10000 1 173 02.08.2018 14:22
62 gr Athen Clouds 21 1021 28 10000 19 180 02.08.2018 14:22
63 th Bangkok Clouds 32 1004 64 10000 15 194 02.08.2018 14:21
64 ua Kiew Clouds 16 1015 47 10000 18 200 02.08.2018 14:21
65 ru Surgut Clear 6 1039 36 10000 18 200 02.08.2018 14:23
66 fi Helsinki Clouds 10 1003 50 10000 19 200 02.08.2018 14:21
67 ru Amderma Clouds 3 1016 80 10000 34 200 02.08.2018 14:23
68 ru Moskau Clouds 14 1013 58 10000 22 210 02.08.2018 14:22
69 cn Lhasa Clouds 14 998 15 10000 35 214 02.08.2018 14:22
70 fj Suva Clouds 25 1013 88 10000 6 220 02.08.2018 14:21
71 es Tarifa Clouds 19 1015 77 10000 15 220 02.08.2018 14:21
72 in Jagatsukh Clouds 9 1017 96 1225 10 222 02.08.2018 14:22
73 us Los Angeles Clouds 13 1013 67 10000 5 225 02.08.2018 14:22
74 gb Glasgow Clouds 12 1027 58 10000 17 230 02.08.2018 14:21
75 tr Istanbul Clouds 16 1023 72 10000 13 240 02.08.2018 14:23
76 ph Manila Clouds 29 1004 74 10000 24 240 02.08.2018 14:21
77 de Emden Clouds 9 1025 65 10000 13 253 02.08.2018 14:21
78 mv Male Clouds 32 1010 70 10000 19 260 02.08.2018 14:23
79 tr Ankara Clouds 15 1021 38 10000 13 260 02.08.2018 14:23
80 kr Seoul Clouds 23 1017 32 10000 6 260 02.08.2018 14:21
81 de Freiburg Clouds 14 1018 68 10000 14 263 02.08.2018 14:22
82 de Magdeburg Clouds 11 1021 53 10000 3 264 02.08.2018 14:22
83 au Darwin Clear 29 1009 74 10000 9 270 02.08.2018 14:22
84 us New York Clouds 2 1009 65 10000 15 270 02.08.2018 14:22
85 au Sydney Clear 13 1015 41 10000 22 270 02.08.2018 14:22
86 mn Uliastai Clouds 3 1016 89 10000 4 273 02.08.2018 14:23
87 us Chicago Clouds 0 1019 75 10000 9 280 02.08.2018 14:23
88 de Berlin Clouds 11 1018 53 10000 32 280 02.08.2018 14:21
89 ru Jakutsk Clear -2 1023 40 10000 11 280 02.08.2018 14:22
90 ar Esquel Mist 2 1015 100 3800 7 280 02.08.2018 14:22
91 cl Santiago Fog 10 1014 100 1200 1 282 02.08.2018 14:23
92 us Las Vegas Clear 16 1006 31 10000 14 290 02.08.2018 14:21
93 de Hamburg Clouds 9 1020 57 10000 33 290 02.08.2018 14:21
94 in Mumbai Smoke 33 1008 58 4000 20 290 02.08.2018 14:22
95 za Kapstadt Clear 23 1015 64 10000 9 290 02.08.2018 14:22
96 bo Potisi Clear 5 1017 63 10000 5 292 02.08.2018 14:22
97 iq Bagdad Clear 36 1011 20 10000 20 300 02.08.2018 14:22
98 de Braunschweig Clouds 10 1021 57 10000 26 300 02.08.2018 14:21
99 de Hannover Clouds 10 1023 57 10000 30 300 02.08.2018 14:21
100 de Hiddensee Clear 11 1018 53 10000 32 303 02.08.2018 14:21
101 de Kassel Clouds 8 1023 53 10000 26 310 02.08.2018 14:21
102 de Dresden Clouds 8 1020 49 10000 24 310 02.08.2018 14:22
103 br Rio de Janeiro Clouds 21 1015 88 10000 7 310 02.08.2018 14:22
104 de Nürnberg Clear 11 1022 43 10000 19 310 02.08.2018 14:21
105 no Oslo Clear 8 1011 37 10000 10 312 02.08.2018 14:23
106 de München Clouds 12 1018 66 10000 5 316 02.08.2018 14:21
107 ae Dubai Clear 38 1010 12 10000 20 320 02.08.2018 14:21
108 mn Ulaanbaatar Clouds 12 1015 28 10000 25 320 02.08.2018 14:23
109 de Helgoland Clouds 8 1023 61 10000 39 320 02.08.2018 14:22
110 de Flensburg Clouds 9 1019 61 10000 56 320 02.08.2018 14:21
111 tr Alanya Clear 26 1020 8 10000 17 320 02.08.2018 14:22
112 se Stockholm Rain 2 1003 87 10000 22 330 02.08.2018 14:23
113 de Bremen Clouds 10 1023 53 10000 32 330 02.08.2018 14:22
114 us Miami Clouds 22 1016 73 10000 9 330 02.08.2018 14:23
115 mx Veracruz Clouds 23 1012 60 10000 6 334 02.08.2018 14:21
116 us Death Valley Clouds 9 1006 25 10000 6 337 02.08.2018 14:22
117 ma Casablanca Clouds 19 1016 59 10000 15 340 02.08.2018 14:23
118 bo La Paz Clouds 5 1036 70 10000 7 340 02.08.2018 14:22
119 at Wien Rain 9 1025 74 10000 2 341 02.08.2018 14:22
120 us Denver Clouds -2 1005 90 10000 8 342 02.08.2018 14:21
121 ch Bern Clouds 15 1018 48 10000 13 350 02.08.2018 14:23
122 nz Wellington Clouds 15 1010 82 10000 19 350 02.08.2018 14:23
123 ru Anadyr Clear -10 1025 92 10000 14 360 02.08.2018 14:23
124 fi Rovaniemi Clear 6 1001 49 10000 6 360 02.08.2018 14:21
125 in Nagpur Haze 38 1008 12 4000 4 360 02.08.2018 14:21
126 jp Nagasaki Clear 20 1016 49 10000 9 360 02.08.2018 14:21
127 do Santo Domingo Clouds 24 1015 88 10000 7 360 02.08.2018 14:21
128 eg Kairo Clear 26 1018 34 10000 28 360 02.08.2018 14:22